TimeAKST,TemperatureF,Dew PointF,Humidity,Sea Level PressureIn,VisibilityMPH,Wind Direction,Wind SpeedMPH,Gust SpeedMPH,PrecipitationIn,Events,Conditions,WindDirDegrees,DateUTC
12:56 AM,-18.9,-24.0,78,30.30,10.0,Calm,Calm,-,N/A,,Clear,0,2012-11-06 09:56:00
1:56 AM,-20.0,-25.1,78,30.32,10.0,Calm,Calm,-,N/A,,Clear,0,2012-11-06 10:56:00
2:56 AM,-20.9,-26.0,77,30.33,10.0,Calm,Calm,-,N/A,,Clear,0,2012-11-06 11:56:00
3:54 AM,-22.0,-27.4,76,30.29,6.2,Calm,Calm,-,N/A,,Partly Cloudy,0,2012-11-06 12:54:00
3:56 AM,-22.0,-27.9,74,30.35,8.0,Calm,Calm,-,N/A,,Partly Cloudy,0,2012-11-06 12:56:00
4:56 AM,-23.1,-27.9,78,30.36,10.0,Calm,Calm,-,N/A,,Clear,0,2012-11-06 13:56:00
6:30 AM,-23.8,-29.2,76,30.33,7.0,Variable,1.2,-,N/A,,Partly Cloudy,0,2012-11-06 15:30:00
6:55 AM,-23.8,-29.2,76,30.40,7.0,Variable,1.2,-,N/A,,Partly Cloudy,0,2012-11-06 15:55:00
7:55 AM,-25.6,-31.0,76,30.41,7.0,Variable,1.2,-,N/A,,Partly Cloudy,0,2012-11-06 16:55:00
8:55 AM,-25.6,-32.8,69,30.43,7.0,Variable,1.2,-,N/A,,Partly Cloudy,0,2012-11-06 17:55:00
9:55 AM,-25.6,-29.2,83,30.44,25.0,Calm,Calm,-,N/A,,Partly Cloudy,0,2012-11-06 18:55:00
10:55 AM,-20.2,-25.6,76,30.45,25.0,Calm,Calm,-,N/A,,Partly Cloudy,0,2012-11-06 19:55:00
10:57 AM,-20.2,-25.6,76,30.45,25.0,Calm,Calm,-,N/A,,Partly Cloudy,0,2012-11-06 19:57:00
11:55 AM,-14.8,-20.2,77,30.46,25.0,Calm,Calm,-,N/A,,Partly Cloudy,0,2012-11-06 20:55:00
12:55 PM,-11.2,-16.6,77,30.47,25.0,Calm,Calm,-,N/A,,Partly Cloudy,0,2012-11-06 21:55:00
1:55 PM,-11.2,-16.6,77,30.46,25.0,Calm,Calm,-,N/A,,Partly Cloudy,0,2012-11-06 22:55:00
2:55 PM,-9.4,-14.8,77,30.47,7.0,Calm,Calm,-,N/A,,Partly Cloudy,0,2012-11-06 23:55:00
3:55 PM,-9.4,-16.6,71,30.47,7.0,Calm,Calm,-,N/A,,Partly Cloudy,0,2012-11-07 00:55:00
4:55 PM,-14.8,-20.2,77,30.48,7.0,Calm,Calm,-,N/A,,Partly Cloudy,0,2012-11-07 01:55:00
5:55 PM,-18.4,-23.8,76,30.50,7.0,Calm,Calm,-,N/A,,Partly Cloudy,0,2012-11-07 02:55:00
6:55 PM,-18.4,-25.6,70,30.52,7.0,Calm,Calm,-,N/A,,Partly Cloudy,0,2012-11-07 03:55:00
7:55 PM,-20.2,-25.6,76,30.53,7.0,Calm,Calm,-,N/A,,Partly Cloudy,0,2012-11-07 04:55:00
8:55 PM,-22.0,-27.4,76,30.55,7.0,Calm,Calm,-,N/A,,Partly Cloudy,0,2012-11-07 05:55:00
9:55 PM,-22.0,-27.4,76,30.55,7.0,Calm,Calm,-,N/A,,Partly Cloudy,0,2012-11-07 06:55:00
9:56 PM,-22.0,-27.0,77,30.55,10.0,Calm,Calm,-,N/A,,Clear,0,2012-11-07 06:56:00
10:52 PM,-23.8,-29.2,76,30.50,6.2,Calm,Calm,-,N/A,,Scattered Clouds,0,2012-11-07 07:52:00
10:56 PM,-23.1,-29.0,74,30.56,5.0,Calm,Calm,-,N/A,,Haze,0,2012-11-07 07:56:00
11:09 PM,-23.8,-27.4,83,30.50,-9999.0,Calm,Calm,-,N/A,,Haze,0,2012-11-07 08:09:00
11:54 PM,-23.8,-29.2,76,30.50,1.8,SE,3.5,-,N/A,,Haze,130,2012-11-07 08:54:00
11:56 PM,-23.1,-29.0,74,30.57,1.8,Calm,Calm,-,N/A,,Haze,0,2012-11-07 08:56:00